CDT,Max TemperatureF,Mean TemperatureF,Min TemperatureF,Max Dew PointF,MeanDew PointF,Min DewpointF,Max Humidity, Mean Humidity, Min Humidity, Max Sea Level PressureIn, Mean Sea Level PressureIn, Min Sea Level PressureIn, Max VisibilityMiles, Mean VisibilityMiles, Min VisibilityMiles, Max Wind SpeedMPH, Mean Wind SpeedMPH, Max Gust SpeedMPH,PrecipitationIn, CloudCover, Events, WindDirDegrees
2012-10-1,71,56,41,51,42,35,83,58,33,30.07,30.00,29.91,10,10,10,26,12,32,0.05,3,Rain,327
2012-10-2,74,53,32,35,29,23,82,49,15,30.04,29.94,29.83,10,10,6,16,7,23,0.00,0,,196
2012-10-3,83,64,45,41,36,28,63,42,21,30.00,29.79,29.67,10,10,10,29,16,37,0.00,0,,181
2012-10-4,54,43,32,39,32,26,71,56,41,30.37,30.21,30.01,10,10,10,31,16,38,0.00,5,,319
2012-10-5,52,40,28,27,24,20,85,58,30,30.40,30.34,30.28,10,10,10,20,9,25,0.00,2,,301
2012-10-6,48,36,24,24,20,17,75,56,37,30.41,30.37,30.34,10,10,10,22,9,25,0.00,1,,310
2012-10-7,59,39,18,27,20,16,91,56,21,30.33,30.16,29.96,10,10,10,23,10,35,0.00,0,,221
2012-10-8,76,58,39,39,28,19,57,36,14,29.94,29.83,29.70,10,10,7,25,10,32,0.00,1,,255
2012-10-9,57,43,29,42,29,18,74,48,22,30.18,29.97,29.80,10,10,10,31,13,38,0.00,2,,314
2012-10-10,66,46,25,29,24,18,75,50,24,30.24,30.12,29.99,10,10,10,22,10,29,0.00,0,,218
2012-10-11,55,46,36,32,28,24,60,48,35,30.38,30.12,29.93,10,10,10,25,13,32,0.00,0,,17
2012-10-12,55,42,29,41,24,15,71,48,24,30.40,30.26,29.96,10,10,10,23,12,28,0.00,4,,128
2012-10-13,73,62,51,57,51,42,93,73,53,29.91,29.74,29.61,10,10,5,23,10,30,0.18,6,Rain-Thunderstorm,195
2012-10-14,68,55,41,44,37,32,76,52,27,29.99,29.89,29.72,10,10,10,25,10,32,0.00,0,,321
2012-10-15,78,56,34,44,37,32,92,57,22,29.98,29.86,29.66,10,10,10,20,7,25,0.00,0,,165
2012-10-16,77,63,49,44,41,37,80,53,26,29.64,29.49,29.31,10,10,10,21,12,25,0.00,0,,236
2012-10-17,68,59,50,45,29,13,62,40,17,29.60,29.47,29.26,10,9,5,44,25,54,T,3,,295
2012-10-18,50,47,43,39,32,18,89,58,27,29.68,29.58,29.49,10,8,2,46,30,60,0.09,8,Rain,307
2012-10-19,51,42,33,39,36,32,96,81,66,29.83,29.78,29.68,10,10,10,37,17,47,0.04,6,Rain,327
2012-10-20,69,49,28,40,33,28,100,63,26,29.82,29.75,29.65,10,6,0,20,9,24,0.00,0,Fog,127
2012-10-21,76,58,39,45,40,36,86,56,25,29.84,29.73,29.65,10,10,10,17,8,23,0.00,1,,78
2012-10-22,57,52,46,50,47,43,93,83,72,29.89,29.83,29.78,10,8,3,17,8,20,T,7,Rain,356
2012-10-23,59,52,44,54,50,43,100,90,80,29.79,29.73,29.68,9,4,0,9,4,10,0.00,7,Fog,204
2012-10-24,52,46,40,49,45,33,100,80,60,29.86,29.81,29.78,10,4,0,26,13,32,0.02,8,Fog-Rain,1
2012-10-25,40,37,33,34,30,25,89,77,64,30.39,30.03,29.79,10,7,2,30,20,40,0.11,8,Rain-Snow-Thunderstorm,328
2012-10-26,39,34,28,26,24,21,75,62,48,30.53,30.46,30.39,10,10,10,15,8,21,0.00,8,,313
2012-10-27,44,33,22,29,25,21,96,73,49,30.42,30.34,30.24,10,10,9,17,8,22,T,5,Snow,161
2012-10-28,54,41,27,30,28,25,85,62,38,30.29,30.22,30.15,10,10,10,23,12,29,T,5,,151
2012-10-29,60,48,36,32,30,28,70,51,32,30.16,30.11,30.06,10,10,10,22,12,28,0.00,2,,141
2012-10-30,56,45,34,30,29,26,75,55,35,30.10,30.06,30.03,10,10,10,15,7,18,0.00,3,,127
2012-10-31,67,47,27,37,31,23,85,59,32,30.07,30.03,29.97,10,10,10,12,4,14,0.00,1,,149